Showing default

CHINASAT-6E, 58253

Orbit data source: Space-Track

CHINASAT-6E, 58253 is a payload satellite owned by China Satcom (CN) in GEO that was launched on Thu, 09 Nov 2023 UTC via a CHANG ZHENG 3B launch vehicle from the Xichang Space Center, China (XSC). Payload-class satellites include a variety of spacecraft equipped with specific instruments for various scientific and technological missions. These include communications satellites like Starlink; space stations such as the ISS; scientific satellites like the Hubble; Earth observation satellites from companies like Planet Labs, Umbra, and HawkEye 360; GPS; miniature CubeSats for education and research; and military/defense satellites.

Not visible in the next 10 days
Identifier
58253, 2023-172A
Orbit
GEO
Country
Flag of CNCN / PRC
Related business
Manufacturer
CAST?
Mission
Operational Civil Communications
Bus & Motor
DFH-4?, DFH-4 LAE
Mass
~5,250 kg wet, ~2,500 kg dry
Launch date (UTC)
2023-11-09 (3 years ago)
Launch vehicle
CHANG ZHENG 3B
Launch site
Xichang Space Center, China (XSC)
Object type
Payload
Rocket body
Debris
Shape & HBR
Box + 2 Pan, 15.0 m
Radar Cross Section
34.063 m², Large (>1 m²)

Expand to show TLE details & history
Last TLE update: 1 day ago

TLE from 1 day ago
0 CHINASAT-6E
1 58253U 23172A   26172.26364315 -.00000363  00000-0  00000+0 0  9998
2 58253   0.0480  90.8226 0002889 352.6953  36.3685  1.00269602  9707
Epoch: 2026-06-21T06:19Z
TLE epoch observation values (Epoch: 2026-06-21T06:19:38.768Z)
Latitude
0.03685°
Longitude
115.53936°
Altitude
35,776.843 km
Speed
3.075 km/s
True Right ascension
07h 59m 40s
True Declination
0° 02' 13"
Sunlit
Object was in daylight at epoch
Visualization orbit readout
Latitude
Unknown
Longitude
Unknown
Altitude
Unknown
Speed
Unknown
Apparent Right ascension
Unknown
Apparent Declination
Unknown
Sunlit
N/A
Visualization observer readout
Local Sidereal Time
23:08:45
Azimuth
Unknown
Elevation
Unknown
Doppler factor
Unknown
Orbital elements
Apogee altitude
35,800.459 km
Perigee altitude
35,776.095 km
Semi-major axis
42,166.414 km
Eccentricity
0.00029
Inclination
0.048°
RAAN
90.8226°
Arg. of periapsis
352.6953°
True anomaly
36.38814°
Mean anomaly
36.3685°
Eccentric anomaly
36.37832°
Mean motion
0.25066 °/min
Orbital period
1,436.18 mins
BSTAR
0
Loading maneuver chart data...
Computing Atmospheric mass density...
Loading historical data...
Loading historical data...
Loading historical data...
Loading historical data...
Loading historical data...
Loading historical data...
Loading historical data...
Other satellites on launch #172 in the year 2023 (2023-11-09 UTC)

Documentation

Showing up to 5 results
|